Nevers, France

1:02 PM CEST on March 26, 2017 (GMT +0200)
Fourchambault

Weather History for LFQG - March, 2014

Change the Weather History Date:

Tuesday, March 18, 2014

  Actual Average Record
Temperature  
Mean Temperature 48 °F -  
Max Temperature 63 °F - - ()
Min Temperature 32 °F - - ()
Degree Days  
Heating Degree Days 18    
Moisture  
Dew Point 41 °F    
Average Humidity 76    
Maximum Humidity 100    
Minimum Humidity 41    
Precipitation  
Precipitation 0.00 in - - ()
Sea Level Pressure  
Sea Level Pressure 30.15 in    
Wind  
Wind Speed 4 mph ()    
Max Wind Speed 20 mph    
Max Gust Speed -    
Visibility 5.1 miles    
Events Fog    
T = Trace of Precipitation, MM = Missing Value Source: Averaged Metar Reports

Daily Weather History Graph

Daily Weather History Graph

Search for Another Location

Airport or City:

Trip Planner

Search our weather history database for the weather conditions in past years. The results will help you decide how hot, cold, wet, or windy it might be!

Date:

Astronomy

Mar. 18, 2014 Rise Set
Actual Time 6:55 AM CET 6:57 PM CET
Civil Twilight 6:24 AM CET 7:27 PM CET
Nautical Twilight 5:49 AM CET 8:03 PM CET
Astronomical Twilight 5:12 AM CET 8:39 PM CET
Moon 9:08 PM CET (3/18) 7:28 AM CET (3/18)
Length of Visible Light 13h 02m
Length of Day
12h 02m
Full, 97% of the Moon is Illuminated
Mar 18
Full
Mar 24
Last Quarter
Mar 30
New
Apr 7
First Quarter
Apr 15
Full

Hourly Weather History & Observations

Time (CET) Temp. Dew Point Humidity Pressure Visibility Wind Dir Wind Speed Gust Speed Precip Events Conditions
12:00 AM 38 °F 36 °F 91% 30.17 in 3 mi Calm Calm - -   Clear
12:00 AM 37.4 °F 35.6 °F 93% 30.12 in 2.8 mi Calm Calm - N/A   Mist
12:30 AM 37.4 °F 35.6 °F 93% 30.12 in 3.7 mi Calm Calm - N/A   Unknown
1:00 AM 36 °F 35 °F 93% 30.17 in 3 mi Calm Calm - -   Clear
1:00 AM 35.6 °F 35.6 °F 100% 30.12 in 3.1 mi Calm Calm - N/A   Mist
1:30 AM 35.6 °F 33.8 °F 93% 30.12 in 1.5 mi Calm Calm - N/A   Mist
2:00 AM 38 °F 38 °F 100% 30.15 in 1 mi Calm Calm - -   Mist
2:00 AM 39.2 °F 39.2 °F 100% 30.12 in 0.7 mi Calm Calm - N/A   Partly Cloudy
2:30 AM 33.8 °F 32.0 °F 93% 30.09 in 0.6 mi Calm Calm - N/A   Mist
3:00 AM 35 °F 35 °F 100% 30.14 in 2 mi Calm Calm - -   Mist
3:00 AM 35.6 °F 35.6 °F 100% 30.09 in 1.6 mi Calm Calm - N/A   Mostly Cloudy
3:30 AM 35.6 °F 35.6 °F 100% 30.09 in 1.1 mi Calm Calm - N/A   Mist
4:00 AM 33.8 °F 33.8 °F 100% 30.09 in 3.1 mi Calm Calm - N/A   Mist
4:30 AM 33.8 °F 33.8 °F 100% 30.09 in - Calm Calm - N/A   Mist
5:00 AM 32.0 °F 30.2 °F 93% 30.06 in 3.7 mi Calm Calm - N/A   Partly Cloudy
5:30 AM 32.0 °F 32.0 °F 100% 30.06 in 0.6 mi Calm Calm - N/A Fog Fog
6:00 AM 33.8 °F 32.0 °F 93% 30.09 in 0.3 mi WNW 2.3 mph - N/A Fog Fog
6:30 AM 33.8 °F 33.8 °F 100% 30.09 in 0.2 mi SSE 2.3 mph - N/A Fog Fog
7:00 AM 33.8 °F 33.8 °F 100% 30.09 in 0.1 mi SSE 1.2 mph - N/A Fog Fog
7:30 AM 35.6 °F 33.8 °F 93% 30.06 in 1.6 mi Calm Calm - N/A   Mostly Cloudy
8:00 AM 36 °F 36 °F 100% 30.13 in 0 mi NW 1.2 mph - - Fog Partial Fog
8:00 AM 37.4 °F 37.4 °F 100% 30.09 in 3.1 mi NW 1.2 mph - N/A   Overcast
8:30 AM 37.4 °F 37.4 °F 100% 30.09 in 0.3 mi Calm Calm - N/A Fog Fog
9:00 AM 39.2 °F 39.2 °F 100% 30.09 in 1.3 mi Variable 1.2 mph - N/A   Mist
9:30 AM 44.6 °F 44.6 °F 100% 30.09 in 4.3 mi Calm Calm - N/A   Scattered Clouds
10:00 AM 49 °F 45 °F 80% 30.12 in 4 mi East 3.5 mph - - Fog Light Fog
10:00 AM 48.2 °F 44.6 °F 87% 30.09 in 4.3 mi Variable 3.5 mph - N/A   Unknown
10:30 AM 51.8 °F 46.4 °F 82% 30.09 in 4.3 mi Variable 2.3 mph - N/A   Unknown
11:00 AM 54 °F 47 °F 72% 30.12 in 4 mi WSW 3.5 mph - -   Clear
11:00 AM 55.4 °F 48.2 °F 77% 30.09 in 6.2 mi Variable 3.5 mph - N/A   Unknown
11:30 AM 55.4 °F 46.4 °F 72% 30.09 in 6.2 mi West 5.8 mph - N/A   Unknown
12:00 PM 58 °F 49 °F 63% 30.12 in 5 mi West 6.9 mph - -   Clear
12:00 PM 59.0 °F 48.2 °F 67% 30.12 in 6.2 mi West 6.9 mph - N/A   Unknown
12:30 PM 59.0 °F 48.2 °F 67% 30.12 in 6.2 mi West 10.4 mph - N/A   Unknown
1:00 PM 61 °F 46 °F 48% 30.12 in 9 mi West 9.2 mph - -   Partly Cloudy
1:00 PM 60.8 °F 46.4 °F 59% 30.09 in 6.2 mi West 9.2 mph - N/A   Unknown
1:30 PM 62.6 °F 46.4 °F 55% 30.09 in 6.2 mi WSW 9.2 mph - N/A   Unknown
2:00 PM 63 °F 46 °F 42% 30.11 in 9 mi West 11.5 mph - -   Scattered Clouds
2:00 PM 62.6 °F 46.4 °F 55% 30.09 in 6.2 mi West 11.5 mph - N/A   Unknown
2:30 PM 62.6 °F 41.0 °F 45% 30.09 in 6.2 mi West 10.4 mph - N/A   Unknown
3:00 PM 62 °F 44 °F 41% 30.11 in 9 mi West 13.8 mph - -   Scattered Clouds
3:00 PM 62.6 °F 44.6 °F 52% 30.09 in 6.2 mi West 13.8 mph - N/A   Unknown
3:30 PM 62.6 °F 42.8 °F 48% 30.09 in 6.2 mi West 15.0 mph - N/A   Unknown
4:00 PM 62 °F 46 °F 44% 30.12 in 12 mi West 16.1 mph - -   Scattered Clouds
4:00 PM 62.6 °F 46.4 °F 55% 30.12 in 6.2 mi West 16.1 mph - N/A   Partly Cloudy
4:30 PM 60.8 °F 46.4 °F 59% 30.12 in 6.2 mi West 17.3 mph - N/A   Mostly Cloudy
5:00 PM 58 °F 45 °F 51% 30.14 in 12 mi West 19.6 mph - -   Scattered Clouds
5:00 PM 59.0 °F 44.6 °F 59% 30.12 in 6.2 mi West 19.6 mph - N/A   Mostly Cloudy
5:30 PM 57.2 °F 44.6 °F 63% 30.15 in 6.2 mi West 16.1 mph - N/A   Unknown
6:00 PM 54 °F 43 °F 57% 30.19 in 9 mi WNW 17.3 mph - -   Clear
6:00 PM 53.6 °F 42.8 °F 67% 30.18 in 6.2 mi WNW 17.3 mph - N/A   Mostly Cloudy
6:30 PM 51.8 °F 42.8 °F 71% 30.18 in 6.2 mi WNW 13.8 mph - N/A   Mostly Cloudy
7:00 PM 51 °F 42 °F 63% 30.23 in 9 mi WNW 11.5 mph - -   Clear
7:00 PM 51.8 °F 42.8 °F 71% 30.21 in 6.2 mi WNW 11.5 mph - N/A   Scattered Clouds
7:30 PM 50.0 °F 41.0 °F 71% 30.24 in 6.2 mi WNW 16.1 mph - N/A   Overcast
8:00 PM 50.0 °F 41.0 °F 71% 30.24 in 6.2 mi WNW 12.7 mph - N/A   Overcast
8:30 PM 50.0 °F 41.0 °F 71% 30.24 in 6.2 mi West 12.7 mph - N/A   Overcast
9:00 PM 49 °F 41 °F 66% 30.28 in 12 mi WSW 8.1 mph - -   Clear
9:00 PM 50.0 °F 41.0 °F 71% 30.27 in 6.2 mi WSW 8.1 mph - N/A   Overcast
9:30 PM 50.0 °F 41.0 °F 71% 30.27 in 6.2 mi WSW 9.2 mph - N/A   Overcast
10:00 PM 49 °F 41 °F 66% 30.31 in 12 mi West 6.9 mph - -   Clear
10:00 PM 50.0 °F 41.0 °F 71% 30.30 in 6.2 mi West 6.9 mph - N/A   Overcast
10:30 PM 50.0 °F 41.0 °F 71% 30.30 in 6.2 mi West 6.9 mph - N/A   Overcast
11:00 PM 49 °F 42 °F 67% 30.33 in 12 mi WSW 6.9 mph - -   Clear
11:00 PM 50.0 °F 41.0 °F 71% 30.30 in 6.2 mi WSW 6.9 mph - N/A   Overcast
11:30 PM 50.0 °F 41.0 °F 71% 30.30 in 6.2 mi WSW 6.9 mph - N/A   Overcast